Wind_Speed
28 29 30 33 32 33 37 34 34 33 32 33 33 32 32 27 25 25 22 21 21 22 25 26 26 26 28 27 28 28 29 30
38 32 31 30 36 39 40 38 39 36 35 34 34 32 31 26 27 30 25 23 24 26 28 29 28 28 30 30 30 31 31 33
43 35 34 30 28 37 42 39 42 40 38 36 35 35 33 31 27 24 26 29 28 28 29 30 29 30 31 31 31 33 34 35
44 41 34 34 30 34 38 41 44 42 41 39 37 36 34 31 30 31 31 30 29 30 30 30 30 31 31 32 32 34 35 37
44 44 37 35 31 36 39 42 45 43 42 41 38 38 36 34 36 33 31 31 32 33 33 32 32 32 33 33 35 37 39 40
45 40 37 34 38 38 38 38 41 40 40 37 36 36 36 35 35 34 34 34 36 35 35 34 34 35 36 38 39 40 41 43
41 39 38 38 39 38 38 35 37 40 39 37 36 36 36 37 37 37 37 38 38 38 37 38 40 40 41 42 43 44 45 46
42 41 38 38 38 36 37 37 37 38 40 42 42 40 40 40 41 40 41 41 41 40 40 42 44 42 42 43 45 46 47 48
39 39 35 36 34 37 39 36 35 39 43 44 41 40 41 42 45 45 44 43 43 43 44 45 44 44 43 46 47 47 48 48
32 32 34 32 34 39 39 37 38 40 39 37 40 42 43 46 46 44 45 43 46 44 45 45 49 47 47 47 47 46 48 52
34 31 35 35 41 41 41 41 43 40 37 39 40 43 46 46 44 43 47 48 48 44 48 46 45 47 46 44 47 50 53 55
31 33 33 34 38 43 43 42 41 40 38 39 39 43 44 46 46 46 45 42 43 43 45 51 49 45 43 47 51 53 54 54
33 32 32 32 35 39 45 43 44 43 43 44 43 43 45 46 44 45 46 47 46 47 51 54 42 44 48 51 51 52 54 52
31 33 34 34 32 34 39 43 44 45 46 46 45 48 48 46 46 42 46 45 48 50 41 40 44 49 52 53 52 50 51 53
29 29 35 37 38 43 44 43 42 44 44 47 47 49 51 52 46 46 44 47 46 42 42 45 48 51 51 49 48 49 52 53
30 31 32 39 43 46 44 43 42 43 45 48 50 51 50 46 46 44 47 46 47 47 48 49 52 50 47 46 47 48 50 54
36 36 39 37 38 36 39 41 42 41 42 45 48 49 44 45 45 49 50 51 50 49 49 50 48 45 44 46 49 53 54 56
40 42 46 43 40 40 41 41 41 43 45 47 47 45 46 49 54 54 52 49 49 51 51 44 43 44 48 49 50 51 54 57
40 42 48 50 51 49 50 48 46 48 45 43 43 44 50 53 53 52 51 51 50 44 39 40 44 44 45 46 49 52 54 57
Wind_Direction
260 244 235 236 232 229 240 243 242 243 246 248 249 251 252 242 248 253 250 250 250 256 259 260 259 261 262 263 264 265 269 271
258 254 247 225 224 231 235 239 245 245 244 246 245 251 255 249 251 252 251 251 251 254 259 263 265 266 267 267 267 268 269 270
259 252 251 237 226 224 235 236 242 241 244 246 244 247 251 252 255 254 247 249 253 255 258 262 265 266 268 272 272 271 272 275
259 253 249 242 229 226 226 228 238 243 240 243 245 246 249 253 255 254 253 256 257 259 259 259 261 262 263 267 271 272 271 272
257 253 245 244 233 228 225 229 234 238 238 241 239 240 243 248 252 255 256 256 259 261 262 265 268 270 271 273 274 274 275 276
263 254 248 241 230 231 231 229 234 237 238 241 238 241 243 247 253 254 256 257 259 261 265 269 272 275 278 277 274 274 275 276
257 248 242 240 235 231 232 229 234 238 242 244 240 240 245 249 250 252 253 256 259 262 266 271 274 274 274 273 275 276 277 279
250 240 239 234 235 236 237 238 235 237 239 243 243 243 244 247 250 252 254 257 260 260 267 273 276 274 273 274 275 277 280 282
252 237 239 231 233 239 238 244 243 240 240 242 244 246 249 252 254 258 260 263 263 264 276 278 275 274 275 277 278 279 281 282
241 230 235 239 234 237 238 238 239 239 242 247 244 245 250 254 257 259 263 262 266 267 277 278 279 280 278 278 281 283 285 287
253 243 240 241 230 229 235 235 240 242 242 246 247 251 254 256 258 262 267 267 272 276 279 282 281 280 279 281 283 285 285 286
245 244 246 238 234 229 232 238 245 250 250 249 248 252 253 252 262 266 269 272 273 274 276 282 281 280 281 283 284 285 286 288
243 246 242 238 233 230 231 239 246 250 253 256 257 257 253 258 262 268 268 271 273 276 278 279 276 280 285 287 287 288 288 288
243 249 250 250 245 238 236 236 242 246 252 256 257 260 260 258 261 268 269 268 272 277 272 274 277 280 286 289 288 288 291 293
258 254 245 242 246 244 243 245 245 250 253 254 256 259 262 260 260 261 262 271 271 270 273 274 277 281 286 286 290 294 296 299
254 252 245 240 241 242 245 249 250 251 253 251 252 256 258 262 260 264 264 268 272 274 276 278 282 285 286 290 294 297 300 301
250 241 240 243 243 239 243 244 244 246 249 250 253 257 259 255 257 259 264 269 272 275 278 281 284 285 288 293 296 298 300 302
251 240 236 239 244 242 238 239 242 246 248 252 254 254 255 256 257 260 266 270 274 277 280 282 285 288 290 292 296 300 302 303
244 235 233 236 240 242 244 244 245 247 249 251 252 251 254 255 260 264 267 272 276 277 278 281 285 287 290 296 300 301 302 303
Height
5792 5794 5797 5798 5801 5803 5804 5807 5810 5813 5815 5818 5820 5821 5822 5824 5824 5826 5827 5827 5828 5829 5829 5830 5830 5830 5829 5829 5828 5829 5828 5827
5781 5784 5788 5791 5793 5795 5797 5800 5803 5807 5809 5811 5814 5816 5816 5818 5819 5820 5821 5822 5822 5823 5823 5824 5824 5824 5823 5823 5822 5822 5822 5821
5770 5776 5779 5783 5786 5789 5791 5794 5796 5800 5804 5806 5808 5808 5810 5811 5812 5813 5813 5814 5815 5816 5816 5816 5817 5817 5816 5815 5815 5815 5815 5813
5758 5765 5771 5774 5777 5781 5784 5787 5788 5791 5794 5798 5800 5801 5803 5806 5805 5805 5806 5807 5808 5809 5810 5810 5809 5809 5809 5808 5808 5808 5807 5806
5749 5753 5758 5766 5770 5772 5773 5776 5779 5782 5786 5789 5792 5793 5795 5798 5797 5798 5799 5800 5800 5801 5801 5801 5801 5800 5800 5799 5799 5799 5797 5796
5739 5745 5749 5755 5757 5763 5765 5768 5771 5774 5778 5782 5784 5785 5787 5788 5790 5791 5792 5792 5793 5793 5793 5792 5792 5791 5789 5789 5788 5787 5787 5786
5729 5734 5737 5742 5745 5751 5757 5760 5763 5765 5768 5772 5774 5775 5777 5779 5781 5782 5783 5784 5784 5785 5785 5784 5783 5782 5781 5780 5779 5777 5776 5775
5718 5722 5727 5731 5736 5741 5745 5749 5755 5759 5761 5763 5765 5767 5769 5771 5771 5773 5774 5775 5775 5775 5775 5775 5774 5774 5773 5771 5769 5768 5766 5764
5709 5715 5719 5723 5726 5730 5735 5738 5744 5749 5752 5754 5756 5758 5759 5760 5761 5764 5765 5765 5767 5768 5768 5767 5766 5764 5762 5760 5758 5756 5754 5752
5701 5706 5711 5715 5719 5723 5726 5729 5735 5740 5742 5742 5743 5745 5748 5749 5751 5754 5755 5756 5757 5757 5757 5755 5754 5752 5750 5748 5746 5744 5742 5740
5692 5697 5703 5706 5709 5713 5717 5721 5725 5728 5731 5732 5734 5735 5736 5738 5741 5743 5745 5746 5746 5745 5745 5744 5741 5739 5738 5736 5735 5733 5730 5727
5684 5688 5693 5697 5700 5704 5708 5712 5715 5717 5720 5722 5726 5727 5729 5730 5732 5733 5734 5734 5733 5733 5732 5731 5730 5728 5726 5724 5722 5719 5716 5712
5676 5679 5683 5688 5691 5694 5699 5702 5705 5708 5711 5713 5715 5715 5717 5718 5720 5722 5722 5722 5721 5721 5720 5719 5718 5717 5715 5712 5709 5706 5702 5699
5668 5670 5674 5678 5682 5686 5690 5693 5697 5700 5701 5703 5704 5704 5705 5706 5708 5709 5710 5712 5711 5710 5708 5707 5707 5706 5703 5700 5696 5692 5689 5686
5658 5660 5662 5666 5669 5672 5676 5680 5684 5686 5689 5692 5693 5694 5696 5696 5698 5699 5700 5700 5700 5699 5697 5696 5695 5693 5690 5687 5684 5682 5678 5673
5647 5648 5650 5653 5655 5660 5665 5668 5671 5674 5677 5678 5680 5682 5683 5687 5688 5688 5689 5688 5689 5688 5687 5686 5685 5682 5679 5676 5674 5670 5665 5661
5634 5637 5639 5643 5646 5648 5652 5656 5659 5662 5665 5667 5669 5671 5674 5676 5678 5678 5678 5678 5678 5678 5676 5674 5672 5669 5667 5666 5662 5658 5653 5647
5620 5624 5627 5630 5635 5637 5639 5642 5646 5649 5652 5655 5658 5661 5664 5665 5666 5666 5667 5666 5666 5665 5664 5662 5661 5659 5658 5654 5650 5644 5640 5634
5604 5609 5614 5617 5620 5624 5626 5629 5633 5636 5640 5643 5646 5650 5651 5652 5653 5654 5655 5654 5654 5653 5652 5651 5650 5648 5645 5641 5636 5631 5626 5619